Time,TemperatureF,DewpointF,PressureIn,WindDirection,WindDirectionDegrees,WindSpeedMPH,WindSpeedGustMPH,Humidity,HourlyPrecipIn,Conditions,Clouds,dailyrainin,SoftwareType,DateUTC
2013-01-08 06:47:00,39.8,28.5,29.88,WSW,248,0.0,0.0,64,0.00,,,0.00,WUHU216HW,2013-01-08 13:47:00,
2013-01-08 06:52:00,39.6,28.4,29.88,SW,225,2.7,2.7,64,0.00,,,0.00,WUHU216HW,2013-01-08 13:52:00,
2013-01-08 06:57:00,39.6,28.4,29.88,SSW,203,2.2,2.7,64,0.00,,,0.00,WUHU216HW,2013-01-08 13:57:00,
2013-01-08 07:02:00,39.6,28.4,29.88,WNW,293,0.9,2.7,64,0.00,,,0.00,WUHU216HW,2013-01-08 14:02:00,
2013-01-08 07:07:00,39.6,28.4,29.89,WNW,293,0.4,2.2,64,0.00,,,0.00,WUHU216HW,2013-01-08 14:07:00,
2013-01-08 07:12:00,39.6,28.4,29.88,West,270,0.4,2.2,64,0.00,,,0.00,WUHU216HW,2013-01-08 14:12:00,
2013-01-08 07:17:00,39.6,28.4,29.89,SE,135,0.4,1.1,64,0.00,,,0.00,WUHU216HW,2013-01-08 14:17:00,
2013-01-08 07:22:00,39.4,28.2,29.89,West,270,1.8,2.0,64,0.00,,,0.00,WUHU216HW,2013-01-08 14:22:00,
2013-01-08 07:27:00,39.6,28.7,29.89,South,180,0.9,2.5,65,0.00,,,0.00,WUHU216HW,2013-01-08 14:27:00,
2013-01-08 07:32:00,39.6,28.7,29.90,WSW,248,1.1,2.5,65,0.00,,,0.00,WUHU216HW,2013-01-08 14:32:00,
2013-01-08 07:38:00,39.6,28.7,29.90,West,270,2.0,2.5,65,0.00,,,0.00,WUHU216HW,2013-01-08 14:38:00,
2013-01-08 07:43:00,39.8,28.9,29.90,SW,225,2.2,3.4,65,0.00,,,0.00,WUHU216HW,2013-01-08 14:43:00,
2013-01-08 07:48:00,40.1,29.6,29.90,WSW,248,1.8,3.4,66,0.00,,,0.00,WUHU216HW,2013-01-08 14:48:00,
2013-01-08 07:52:00,40.7,30.2,29.91,SW,225,0.4,2.7,66,0.00,,,0.00,WUHU216HW,2013-01-08 14:52:00,
2013-01-08 07:57:00,41.2,30.3,29.91,NNW,338,0.4,2.7,65,0.00,,,0.00,WUHU216HW,2013-01-08 14:57:00,
2013-01-08 08:02:00,41.9,30.3,29.92,WNW,293,2.9,3.4,63,0.00,,,0.00,WUHU216HW,2013-01-08 15:02:00,
2013-01-08 08:07:00,42.3,29.8,29.92,NNW,338,1.6,3.4,61,0.00,,,0.00,WUHU216HW,2013-01-08 15:07:00,
2013-01-08 08:12:00,42.8,29.9,29.92,WNW,293,1.1,2.5,60,0.00,,,0.00,WUHU216HW,2013-01-08 15:12:00,
2013-01-08 08:18:00,43.2,30.2,29.92,NW,315,1.6,2.5,60,0.00,,,0.00,WUHU216HW,2013-01-08 15:18:00,
2013-01-08 08:22:00,43.7,29.9,29.92,NW,315,1.3,4.5,58,0.00,,,0.00,WUHU216HW,2013-01-08 15:22:00,
2013-01-08 08:27:00,44.1,30.2,29.92,WNW,293,2.0,4.5,58,0.00,,,0.00,WUHU216HW,2013-01-08 15:27:00,
2013-01-08 08:33:00,44.5,30.2,29.93,NW,315,1.3,2.9,57,0.00,,,0.00,WUHU216HW,2013-01-08 15:33:00,
2013-01-08 08:38:00,44.6,29.9,29.93,NNE,23,0.9,2.5,56,0.00,,,0.00,WUHU216HW,2013-01-08 15:38:00,
2013-01-08 08:43:00,45.0,30.3,29.93,North,0,1.8,5.6,56,0.00,,,0.00,WUHU216HW,2013-01-08 15:43:00,
2013-01-08 08:48:00,45.0,29.8,29.93,NW,315,1.6,5.6,55,0.00,,,0.00,WUHU216HW,2013-01-08 15:48:00,
2013-01-08 08:53:00,45.2,29.9,29.94,North,0,2.5,5.4,55,0.00,,,0.00,WUHU216HW,2013-01-08 15:53:00,
2013-01-08 08:58:00,45.2,29.4,29.94,NW,315,3.6,4.7,54,0.00,,,0.00,WUHU216HW,2013-01-08 15:58:00,
2013-01-08 09:02:00,45.2,28.5,29.94,NW,315,2.7,4.7,52,0.00,,,0.00,WUHU216HW,2013-01-08 16:02:00,
2013-01-08 09:07:00,45.7,29.1,29.94,West,270,3.6,4.0,52,0.00,,,0.00,WUHU216HW,2013-01-08 16:07:00,
2013-01-08 09:12:00,46.1,28.4,29.95,NW,315,3.4,5.6,50,0.00,,,0.00,WUHU216HW,2013-01-08 16:12:00,
2013-01-08 09:17:00,46.1,27.9,29.95,WNW,293,3.4,5.6,49,0.00,,,0.00,WUHU216HW,2013-01-08 16:17:00,
2013-01-08 09:23:00,46.3,27.5,29.95,NNW,338,2.7,5.4,48,0.00,,,0.00,WUHU216HW,2013-01-08 16:23:00,
2013-01-08 09:28:00,46.4,27.2,29.95,NNE,23,5.4,5.4,47,0.00,,,0.00,WUHU216HW,2013-01-08 16:28:00,
2013-01-08 09:33:00,46.4,27.2,29.96,North,0,3.6,5.4,47,0.00,,,0.00,WUHU216HW,2013-01-08 16:33:00,
2013-01-08 09:38:00,46.1,26.3,29.96,North,0,2.0,5.4,46,0.00,,,0.00,WUHU216HW,2013-01-08 16:38:00,
2013-01-08 09:43:00,45.9,26.2,29.96,North,0,3.8,5.1,46,0.00,,,0.00,WUHU216HW,2013-01-08 16:43:00,
2013-01-08 09:48:00,45.9,26.7,29.96,NNW,338,4.5,5.1,47,0.00,,,0.00,WUHU216HW,2013-01-08 16:48:00,
2013-01-08 09:53:00,45.5,26.4,29.97,NNW,338,1.8,4.7,47,0.00,,,0.00,WUHU216HW,2013-01-08 16:53:00,
2013-01-08 09:58:00,45.7,26.6,29.96,SW,225,4.0,5.1,47,0.00,,,0.00,WUHU216HW,2013-01-08 16:58:00,
2013-01-08 10:03:00,45.9,26.2,29.95,NNW,338,1.6,6.3,46,0.00,,,0.00,WUHU216HW,2013-01-08 17:03:00,
2013-01-08 10:08:00,46.4,27.2,29.95,WNW,293,2.9,6.3,47,0.00,,,0.00,WUHU216HW,2013-01-08 17:08:00,
2013-01-08 10:13:00,47.2,27.3,29.95,NNW,338,2.5,3.6,46,0.00,,,0.00,WUHU216HW,2013-01-08 17:13:00,
2013-01-08 10:18:00,47.9,27.9,29.95,West,270,2.0,3.6,46,0.00,,,0.00,WUHU216HW,2013-01-08 17:18:00,
2013-01-08 10:23:00,48.4,27.9,29.95,WNW,293,1.8,5.6,45,0.00,,,0.00,WUHU216HW,2013-01-08 17:23:00,
2013-01-08 10:28:00,48.6,27.0,29.95,North,0,2.2,5.8,43,0.00,,,0.00,WUHU216HW,2013-01-08 17:28:00,
2013-01-08 10:33:00,48.8,27.7,29.95,NNW,338,2.7,5.8,44,0.00,,,0.00,WUHU216HW,2013-01-08 17:33:00,
2013-01-08 10:38:00,49.3,28.2,29.95,NNE,23,2.5,4.0,44,0.00,,,0.00,WUHU216HW,2013-01-08 17:38:00,
2013-01-08 10:43:00,49.1,27.5,29.95,North,0,2.0,4.0,43,0.00,,,0.00,WUHU216HW,2013-01-08 17:43:00,
2013-01-08 10:48:00,48.8,27.7,29.94,NNE,23,0.0,4.0,44,0.00,,,0.00,WUHU216HW,2013-01-08 17:48:00,
2013-01-08 10:53:00,49.1,27.5,29.94,NNW,338,1.3,3.8,43,0.00,,,0.00,WUHU216HW,2013-01-08 17:53:00,
2013-01-08 10:58:00,49.3,28.2,29.93,WSW,248,1.8,3.4,44,0.00,,,0.00,WUHU216HW,2013-01-08 17:58:00,
2013-01-08 11:03:00,49.5,28.4,29.93,NW,315,2.5,3.4,44,0.00,,,0.00,WUHU216HW,2013-01-08 18:03:00,
2013-01-08 11:08:00,49.7,28.5,29.93,NNW,338,1.8,3.6,44,0.00,,,0.00,WUHU216HW,2013-01-08 18:08:00,
2013-01-08 11:13:00,50.0,28.9,29.93,NNW,338,1.8,3.6,44,0.00,,,0.00,WUHU216HW,2013-01-08 18:13:00,
2013-01-08 11:17:00,50.2,28.4,29.93,NNW,338,3.6,3.8,43,0.00,,,0.00,WUHU216HW,2013-01-08 18:17:00,
2013-01-08 11:23:00,50.0,27.7,29.93,North,0,4.7,4.7,42,0.00,,,0.00,WUHU216HW,2013-01-08 18:23:00,
2013-01-08 11:27:00,50.0,28.4,29.93,NNW,338,3.4,5.1,43,0.00,,,0.00,WUHU216HW,2013-01-08 18:27:00,
2013-01-08 11:33:00,50.4,28.6,29.93,NW,315,0.7,5.1,43,0.00,,,0.00,WUHU216HW,2013-01-08 18:33:00,
2013-01-08 11:38:00,50.9,29.2,29.93,North,0,2.7,4.0,43,0.00,,,0.00,WUHU216HW,2013-01-08 18:38:00,
2013-01-08 11:43:00,51.3,29.4,29.93,North,0,3.8,4.3,43,0.00,,,0.00,WUHU216HW,2013-01-08 18:43:00,
2013-01-08 11:48:00,51.5,29.6,29.93,WNW,293,3.4,6.3,43,0.00,,,0.00,WUHU216HW,2013-01-08 18:48:00,
2013-01-08 11:53:00,51.7,29.3,29.93,NNE,23,4.3,6.3,42,0.00,,,0.00,WUHU216HW,2013-01-08 18:53:00,
2013-01-08 11:58:00,51.7,29.3,29.92,North,0,2.9,6.3,42,0.00,,,0.00,WUHU216HW,2013-01-08 18:58:00,
2013-01-08 12:03:00,51.7,29.3,29.93,WNW,293,3.6,6.3,42,0.00,,,0.00,WUHU216HW,2013-01-08 19:03:00,
2013-01-08 12:08:00,52.0,29.5,29.93,WNW,293,6.0,6.3,42,0.00,,,0.00,WUHU216HW,2013-01-08 19:08:00,
2013-01-08 12:13:00,52.2,30.2,29.93,NW,315,3.6,7.8,43,0.00,,,0.00,WUHU216HW,2013-01-08 19:13:00,
2013-01-08 12:18:00,52.6,30.6,29.93,WNW,293,4.3,7.8,43,0.00,,,0.00,WUHU216HW,2013-01-08 19:18:00,
2013-01-08 12:23:00,52.6,30.1,29.93,NNW,338,3.8,5.8,42,0.00,,,0.00,WUHU216HW,2013-01-08 19:23:00,
2013-01-08 12:28:00,52.6,30.1,29.93,NW,315,2.5,5.8,42,0.00,,,0.00,WUHU216HW,2013-01-08 19:28:00,
2013-01-08 12:33:00,52.6,29.4,29.92,NW,315,4.7,5.8,41,0.00,,,0.00,WUHU216HW,2013-01-08 19:33:00,
2013-01-08 12:38:00,52.9,30.3,29.92,WNW,293,3.8,5.6,42,0.00,,,0.00,WUHU216HW,2013-01-08 19:38:00,
2013-01-08 12:43:00,53.1,30.0,29.92,WNW,293,4.3,5.4,41,0.00,,,0.00,WUHU216HW,2013-01-08 19:43:00,
2013-01-08 12:48:00,53.3,30.2,29.92,North,0,4.3,5.4,41,0.00,,,0.00,WUHU216HW,2013-01-08 19:48:00,
2013-01-08 12:53:00,53.5,29.7,29.92,NW,315,2.7,6.9,40,0.00,,,0.00,WUHU216HW,2013-01-08 19:53:00,
2013-01-08 12:58:00,53.6,29.9,29.92,WSW,248,3.8,6.9,40,0.00,,,0.00,WUHU216HW,2013-01-08 19:58:00,
2013-01-08 13:03:00,53.8,29.3,29.92,North,0,1.8,5.4,39,0.00,,,0.00,WUHU216HW,2013-01-08 20:03:00,
2013-01-08 13:08:00,54.0,29.5,29.91,NW,315,3.4,4.9,39,0.00,,,0.00,WUHU216HW,2013-01-08 20:08:00,
2013-01-08 13:12:00,54.4,29.9,29.91,NNW,338,2.2,4.9,39,0.00,,,0.00,WUHU216HW,2013-01-08 20:12:00,
2013-01-08 13:17:00,54.7,29.4,29.91,North,0,4.7,5.4,38,0.00,,,0.00,WUHU216HW,2013-01-08 20:17:00,
2013-01-08 13:22:00,54.7,30.2,29.91,NW,315,2.7,5.4,39,0.00,,,0.00,WUHU216HW,2013-01-08 20:22:00,
2013-01-08 13:28:00,54.9,28.3,29.91,NNW,338,2.5,4.0,36,0.00,,,0.00,WUHU216HW,2013-01-08 20:28:00,
2013-01-08 13:32:00,54.7,28.8,29.91,NW,315,2.5,4.0,37,0.00,,,0.00,WUHU216HW,2013-01-08 20:32:00,
2013-01-08 13:37:00,54.7,28.8,29.90,North,0,1.6,3.4,37,0.00,,,0.00,WUHU216HW,2013-01-08 20:37:00,
2013-01-08 13:42:00,54.7,29.4,29.90,ESE,113,1.6,2.9,38,0.00,,,0.00,WUHU216HW,2013-01-08 20:42:00,
2013-01-08 13:47:00,55.1,29.8,29.90,SW,225,1.8,4.3,38,0.00,,,0.00,WUHU216HW,2013-01-08 20:47:00,
2013-01-08 13:52:00,55.4,30.1,29.90,NNE,23,1.3,4.3,38,0.00,,,0.00,WUHU216HW,2013-01-08 20:52:00,
2013-01-08 13:57:00,55.4,28.7,29.90,SW,225,3.8,4.7,36,0.00,,,0.00,WUHU216HW,2013-01-08 20:57:00,
2013-01-08 14:02:00,55.4,29.4,29.90,North,0,0.7,4.7,37,0.00,,,0.00,WUHU216HW,2013-01-08 21:02:00,
2013-01-08 14:07:00,55.4,28.7,29.90,NNE,23,1.1,4.3,36,0.00,,,0.00,WUHU216HW,2013-01-08 21:07:00,
2013-01-08 14:12:00,55.4,27.3,29.90,North,0,3.4,4.7,34,0.00,,,0.00,WUHU216HW,2013-01-08 21:12:00,
2013-01-08 14:17:00,55.6,28.2,29.90,NW,315,4.3,4.7,35,0.00,,,0.00,WUHU216HW,2013-01-08 21:17:00,
2013-01-08 14:22:00,55.8,29.0,29.90,WNW,293,0.4,4.7,36,0.00,,,0.00,WUHU216HW,2013-01-08 21:22:00,
2013-01-08 14:27:00,55.8,29.0,29.90,WNW,293,2.0,4.3,36,0.00,,,0.00,WUHU216HW,2013-01-08 21:27:00,
2013-01-08 14:32:00,56.0,28.4,29.90,WNW,293,2.7,4.0,35,0.00,,,0.00,WUHU216HW,2013-01-08 21:32:00,
2013-01-08 14:37:00,56.3,28.1,29.90,NW,315,1.6,4.5,34,0.00,,,0.00,WUHU216HW,2013-01-08 21:37:00,
2013-01-08 14:43:00,56.3,28.1,29.90,WNW,293,2.5,4.5,34,0.00,,,0.00,WUHU216HW,2013-01-08 21:43:00,
2013-01-08 14:48:00,56.5,27.5,29.90,SW,225,7.4,7.4,33,0.00,,,0.00,WUHU216HW,2013-01-08 21:48:00,
2013-01-08 14:52:00,56.5,26.8,29.90,SSW,203,5.6,7.6,32,0.00,,,0.00,WUHU216HW,2013-01-08 21:52:00,
2013-01-08 14:57:00,56.5,26.8,29.90,SW,225,5.4,7.6,32,0.00,,,0.00,WUHU216HW,2013-01-08 21:57:00,
2013-01-08 15:02:00,57.1,28.1,29.90,NW,315,2.5,6.3,33,0.00,,,0.00,WUHU216HW,2013-01-08 22:02:00,
2013-01-08 15:07:00,57.4,27.6,29.90,NNW,338,3.1,5.4,32,0.00,,,0.00,WUHU216HW,2013-01-08 22:07:00,
2013-01-08 15:12:00,57.6,27.8,29.90,NNW,338,1.6,3.4,32,0.00,,,0.00,WUHU216HW,2013-01-08 22:12:00,
2013-01-08 15:17:00,57.6,27.8,29.90,NNW,338,1.8,4.0,32,0.00,,,0.00,WUHU216HW,2013-01-08 22:17:00,
2013-01-08 15:22:00,58.0,27.5,29.91,NW,315,3.1,4.0,31,0.00,,,0.00,WUHU216HW,2013-01-08 22:22:00,
2013-01-08 15:27:00,58.0,25.8,29.91,NW,315,1.8,4.3,29,0.00,,,0.00,WUHU216HW,2013-01-08 22:27:00,
2013-01-08 15:32:00,58.1,25.9,29.91,NNW,338,2.7,4.3,29,0.00,,,0.00,WUHU216HW,2013-01-08 22:32:00,
2013-01-08 15:37:00,58.1,26.9,29.91,NNE,23,1.1,3.8,30,0.00,,,0.00,WUHU216HW,2013-01-08 22:37:00,
2013-01-08 15:43:00,58.1,26.9,29.91,NW,315,2.5,4.0,30,0.00,,,0.00,WUHU216HW,2013-01-08 22:43:00,
2013-01-08 15:48:00,58.0,26.7,29.91,North,0,2.0,6.3,30,0.00,,,0.00,WUHU216HW,2013-01-08 22:48:00,
2013-01-08 15:53:00,58.0,26.7,29.91,NW,315,3.1,6.3,30,0.00,,,0.00,WUHU216HW,2013-01-08 22:53:00,
2013-01-08 15:58:00,58.0,25.8,29.91,North,0,2.2,4.0,29,0.00,,,0.00,WUHU216HW,2013-01-08 22:58:00,
2013-01-08 16:03:00,57.8,25.7,29.91,North,0,1.8,4.0,29,0.00,,,0.00,WUHU216HW,2013-01-08 23:03:00,
2013-01-08 16:08:00,58.0,25.8,29.91,West,270,2.5,4.0,29,0.00,,,0.00,WUHU216HW,2013-01-08 23:08:00,
2013-01-08 16:12:00,58.0,25.8,29.91,WNW,293,2.2,3.8,29,0.00,,,0.00,WUHU216HW,2013-01-08 23:12:00,
2013-01-08 16:18:00,58.0,25.8,29.91,NW,315,1.3,3.1,29,0.00,,,0.00,WUHU216HW,2013-01-08 23:18:00,
2013-01-08 16:23:00,58.1,25.9,29.92,NW,315,2.0,3.8,29,0.00,,,0.00,WUHU216HW,2013-01-08 23:23:00,
2013-01-08 16:28:00,58.0,25.8,29.92,WNW,293,1.1,3.8,29,0.00,,,0.00,WUHU216HW,2013-01-08 23:28:00,
2013-01-08 16:33:00,58.0,25.8,29.92,NW,315,2.5,3.4,29,0.00,,,0.00,WUHU216HW,2013-01-08 23:33:00,
2013-01-08 16:38:00,58.0,25.8,29.92,NNW,338,3.1,3.8,29,0.00,,,0.00,WUHU216HW,2013-01-08 23:38:00,
2013-01-08 16:43:00,57.6,24.5,29.92,NW,315,2.7,3.8,28,0.00,,,0.00,WUHU216HW,2013-01-08 23:43:00,
2013-01-08 16:48:00,57.4,24.4,29.92,NW,315,1.6,3.4,28,0.00,,,0.00,WUHU216HW,2013-01-08 23:48:00,
2013-01-08 16:53:00,57.2,24.2,29.92,NW,315,1.1,2.7,28,0.00,,,0.00,WUHU216HW,2013-01-08 23:53:00,
2013-01-08 16:58:00,57.1,25.0,29.92,NW,315,1.3,2.2,29,0.00,,,0.00,WUHU216HW,2013-01-08 23:58:00,
2013-01-08 17:03:00,56.9,24.9,29.93,NNW,338,0.0,2.2,29,0.00,,,0.00,WUHU216HW,2013-01-09 00:03:00,
2013-01-08 17:08:00,56.7,24.7,29.93,NNW,338,0.0,1.3,29,0.00,,,0.00,WUHU216HW,2013-01-09 00:08:00,
2013-01-08 17:13:00,56.5,25.5,29.93,NNW,338,0.0,0.0,30,0.00,,,0.00,WUHU216HW,2013-01-09 00:13:00,
2013-01-08 17:18:00,56.2,25.1,29.93,West,270,0.0,0.0,30,0.00,,,0.00,WUHU216HW,2013-01-09 00:18:00,
2013-01-08 17:23:00,55.6,25.4,29.93,West,270,0.0,0.0,31,0.00,,,0.00,WUHU216HW,2013-01-09 00:23:00,
2013-01-08 17:28:00,55.3,25.0,29.93,West,270,0.0,0.0,31,0.00,,,0.00,WUHU216HW,2013-01-09 00:28:00,
2013-01-08 17:33:00,54.7,24.6,29.93,South,180,0.0,0.0,31,0.00,,,0.00,WUHU216HW,2013-01-09 00:33:00,
2013-01-08 17:38:00,54.4,25.0,29.93,SW,225,1.1,1.1,32,0.00,,,0.00,WUHU216HW,2013-01-09 00:38:00,
2013-01-08 17:43:00,53.6,24.4,29.93,SSW,203,0.4,1.1,32,0.00,,,0.00,WUHU216HW,2013-01-09 00:43:00,
2013-01-08 17:48:00,53.1,24.0,29.94,South,180,0.0,1.1,32,0.00,,,0.00,WUHU216HW,2013-01-09 00:48:00,
2013-01-08 17:53:00,52.6,24.1,29.94,SSW,203,0.4,0.9,33,0.00,,,0.00,WUHU216HW,2013-01-09 00:53:00,
2013-01-08 17:58:00,52.0,23.7,29.94,South,180,0.0,0.7,33,0.00,,,0.00,WUHU216HW,2013-01-09 00:58:00,
2013-01-08 18:03:00,51.5,23.1,29.94,SE,135,0.0,1.1,33,0.00,,,0.00,WUHU216HW,2013-01-09 01:03:00,
2013-01-08 18:08:00,51.1,23.5,29.94,SW,225,1.1,1.1,34,0.00,,,0.00,WUHU216HW,2013-01-09 01:08:00,
2013-01-08 18:13:00,50.6,23.1,29.94,SW,225,1.8,2.2,34,0.00,,,0.00,WUHU216HW,2013-01-09 01:13:00,
2013-01-08 18:18:00,49.9,23.8,29.94,SW,225,1.8,2.2,36,0.00,,,0.00,WUHU216HW,2013-01-09 01:18:00,
2013-01-08 18:23:00,49.3,23.3,29.95,SW,225,1.6,2.0,36,0.00,,,0.00,WUHU216HW,2013-01-09 01:23:00,
2013-01-08 18:28:00,49.0,23.7,29.95,SW,225,1.8,2.5,37,0.00,,,0.00,WUHU216HW,2013-01-09 01:28:00,
2013-01-08 18:33:00,48.6,23.3,29.95,SW,225,1.6,2.5,37,0.00,,,0.00,WUHU216HW,2013-01-09 01:33:00,
2013-01-08 18:38:00,48.4,23.2,29.95,SW,225,1.3,1.8,37,0.00,,,0.00,WUHU216HW,2013-01-09 01:38:00,
2013-01-08 18:43:00,48.2,23.1,29.95,SSW,203,0.7,1.8,37,0.00,,,0.00,WUHU216HW,2013-01-09 01:43:00,
2013-01-08 18:48:00,48.1,22.9,29.95,SSW,203,0.9,1.6,37,0.00,,,0.00,WUHU216HW,2013-01-09 01:48:00,
2013-01-08 18:53:00,47.9,22.7,29.95,SW,225,1.1,1.1,37,0.00,,,0.00,WUHU216HW,2013-01-09 01:53:00,
2013-01-08 18:58:00,47.5,23.0,29.95,SSW,203,1.3,1.6,38,0.00,,,0.00,WUHU216HW,2013-01-09 01:58:00,
2013-01-08 19:03:00,47.2,22.7,29.96,SW,225,1.1,1.8,38,0.00,,,0.00,WUHU216HW,2013-01-09 02:03:00,
2013-01-08 19:08:00,47.0,21.9,29.96,SW,225,1.8,1.8,37,0.00,,,0.00,WUHU216HW,2013-01-09 02:08:00,
2013-01-08 19:13:00,46.6,22.2,29.96,SW,225,1.3,2.5,38,0.00,,,0.00,WUHU216HW,2013-01-09 02:13:00,
2013-01-08 19:18:00,46.4,22.1,29.96,WSW,248,1.3,2.5,38,0.00,,,0.00,WUHU216HW,2013-01-09 02:18:00,
2013-01-08 19:23:00,46.4,22.1,29.96,WSW,248,1.1,2.0,38,0.00,,,0.00,WUHU216HW,2013-01-09 02:23:00,
2013-01-08 19:28:00,46.3,21.9,29.96,NW,315,1.3,2.2,38,0.00,,,0.00,WUHU216HW,2013-01-09 02:28:00,
2013-01-08 19:33:00,45.9,22.2,29.96,SSW,203,1.6,2.5,39,0.00,,,0.00,WUHU216HW,2013-01-09 02:33:00,
2013-01-08 19:38:00,45.2,22.2,29.96,SW,225,1.8,3.4,40,0.00,,,0.00,WUHU216HW,2013-01-09 02:38:00,
2013-01-08 19:43:00,44.6,22.9,29.96,WSW,248,2.0,4.0,42,0.00,,,0.00,WUHU216HW,2013-01-09 02:43:00,
2013-01-08 19:48:00,44.5,22.7,29.96,SSW,203,2.2,4.0,42,0.00,,,0.00,WUHU216HW,2013-01-09 02:48:00,
2013-01-08 19:53:00,44.6,22.9,29.96,WNW,293,1.8,4.3,42,0.00,,,0.00,WUHU216HW,2013-01-09 02:53:00,
2013-01-08 19:58:00,44.8,22.5,29.96,WSW,248,1.6,4.3,41,0.00,,,0.00,WUHU216HW,2013-01-09 02:58:00,
2013-01-08 20:03:00,44.6,21.8,29.97,West,270,2.2,3.1,40,0.00,,,0.00,WUHU216HW,2013-01-09 03:03:00,
2013-01-08 20:08:00,44.3,21.4,29.97,WNW,293,2.9,3.1,40,0.00,,,0.00,WUHU216HW,2013-01-09 03:08:00,
2013-01-08 20:13:00,44.3,22.0,29.97,WSW,248,2.2,2.9,41,0.00,,,0.00,WUHU216HW,2013-01-09 03:13:00,
2013-01-08 20:18:00,44.1,21.9,29.97,WSW,248,1.3,2.9,41,0.00,,,0.00,WUHU216HW,2013-01-09 03:18:00,
2013-01-08 20:23:00,43.9,21.7,29.97,WSW,248,1.1,2.2,41,0.00,,,0.00,WUHU216HW,2013-01-09 03:23:00,
2013-01-08 20:28:00,43.6,21.3,29.97,SW,225,1.1,1.8,41,0.00,,,0.00,WUHU216HW,2013-01-09 03:28:00,
2013-01-08 20:33:00,43.4,21.7,29.97,WSW,248,2.9,3.1,42,0.00,,,0.00,WUHU216HW,2013-01-09 03:33:00,
2013-01-08 20:38:00,43.6,21.9,29.97,SW,225,1.6,3.4,42,0.00,,,0.00,WUHU216HW,2013-01-09 03:38:00,
2013-01-08 20:43:00,43.9,21.7,29.97,WSW,248,1.6,3.4,41,0.00,,,0.00,WUHU216HW,2013-01-09 03:43:00,
2013-01-08 20:48:00,43.9,21.2,29.97,West,270,0.7,3.1,40,0.00,,,0.00,WUHU216HW,2013-01-09 03:48:00,
2013-01-08 20:52:00,43.7,21.0,29.97,NW,315,0.4,2.5,40,0.00,,,0.00,WUHU216HW,2013-01-09 03:52:00,
2013-01-08 20:58:00,43.6,20.2,29.97,NW,315,1.1,1.3,39,0.00,,,0.00,WUHU216HW,2013-01-09 03:58:00,
2013-01-08 21:03:00,43.6,20.2,29.97,WNW,293,0.4,1.3,39,0.00,,,0.00,WUHU216HW,2013-01-09 04:03:00,
2013-01-08 21:07:00,43.4,20.0,29.97,West,270,0.9,1.6,39,0.00,,,0.00,WUHU216HW,2013-01-09 04:07:00,
2013-01-08 21:12:00,42.8,19.5,29.97,WSW,248,0.7,1.6,39,0.00,,,0.00,WUHU216HW,2013-01-09 04:12:00,
2013-01-08 21:17:00,42.7,19.4,29.97,WNW,293,0.0,1.1,39,0.00,,,0.00,WUHU216HW,2013-01-09 04:17:00,
2013-01-08 21:22:00,42.3,19.0,29.97,North,0,0.4,0.7,39,0.00,,,0.00,WUHU216HW,2013-01-09 04:22:00,
2013-01-08 21:27:00,41.9,19.4,29.97,East,90,0.7,0.7,40,0.00,,,0.00,WUHU216HW,2013-01-09 04:27:00,
2013-01-08 21:32:00,41.6,19.0,29.97,East,90,0.0,1.1,40,0.00,,,0.00,WUHU216HW,2013-01-09 04:32:00,
2013-01-08 21:37:00,41.4,19.4,29.97,ENE,68,0.0,1.1,41,0.00,,,0.00,WUHU216HW,2013-01-09 04:37:00,
2013-01-08 21:42:00,41.0,19.6,29.98,WSW,248,0.0,1.1,42,0.00,,,0.00,WUHU216HW,2013-01-09 04:42:00,
2013-01-08 21:47:00,40.9,19.5,29.98,WNW,293,0.7,1.1,42,0.00,,,0.00,WUHU216HW,2013-01-09 04:47:00,
2013-01-08 21:52:00,40.7,19.3,29.98,WSW,248,1.6,1.6,42,0.00,,,0.00,WUHU216HW,2013-01-09 04:52:00,
2013-01-08 21:58:00,40.1,19.3,29.98,SW,225,1.3,1.8,43,0.00,,,0.00,WUHU216HW,2013-01-09 04:58:00,
2013-01-08 22:01:00,40.0,19.2,29.98,SW,225,1.1,1.8,43,0.00,,,0.00,WUHU216HW,2013-01-09 05:01:00,
2013-01-08 22:02:00,40.0,19.2,29.98,WSW,248,0.7,1.8,43,0.00,,,0.00,WUHU216HW,2013-01-09 05:02:00,
2013-01-08 22:03:00,40.0,19.2,29.98,WSW,248,0.7,1.8,43,0.00,,,0.00,WUHU216HW,2013-01-09 05:03:00,
2013-01-08 22:08:00,39.6,19.4,29.98,SW,225,1.1,2.5,44,0.00,,,0.00,WUHU216HW,2013-01-09 05:08:00,
2013-01-08 22:13:00,39.4,19.2,29.98,SW,225,1.1,2.5,44,0.00,,,0.00,WUHU216HW,2013-01-09 05:13:00,
2013-01-08 22:18:00,39.2,19.0,29.99,SSE,158,0.2,2.5,44,0.00,,,0.00,WUHU216HW,2013-01-09 05:18:00,
2013-01-08 22:23:00,39.2,19.0,29.99,SE,135,0.7,2.0,44,0.00,,,0.00,WUHU216HW,2013-01-09 05:23:00,
2013-01-08 22:28:00,39.2,19.0,29.99,SE,135,0.0,1.1,44,0.00,,,0.00,WUHU216HW,2013-01-09 05:28:00,
2013-01-08 22:33:00,39.1,18.8,30.00,WSW,248,1.1,1.1,44,0.00,,,0.00,WUHU216HW,2013-01-09 05:33:00,
2013-01-08 22:38:00,38.5,18.4,29.99,WSW,248,2.5,2.5,44,0.00,,,0.00,WUHU216HW,2013-01-09 05:38:00,
2013-01-08 22:43:00,38.3,18.7,29.99,WSW,248,3.4,3.4,45,0.00,,,0.00,WUHU216HW,2013-01-09 05:43:00,
2013-01-08 22:48:00,38.5,18.9,29.99,SW,225,2.2,3.6,45,0.00,,,0.00,WUHU216HW,2013-01-09 05:48:00,
2013-01-08 22:53:00,38.7,19.1,30.00,SE,135,1.1,3.6,45,0.00,,,0.00,WUHU216HW,2013-01-09 05:53:00,
2013-01-08 22:58:00,38.5,18.4,30.00,SE,135,0.4,2.2,44,0.00,,,0.00,WUHU216HW,2013-01-09 05:58:00,
2013-01-08 23:03:00,38.5,18.4,30.01,East,90,0.7,1.8,44,0.00,,,0.00,WUHU216HW,2013-01-09 06:03:00,
2013-01-08 23:08:00,38.5,18.4,30.00,ESE,113,0.0,1.8,44,0.00,,,0.00,WUHU216HW,2013-01-09 06:08:00,
2013-01-08 23:13:00,38.3,18.2,30.00,ESE,113,0.9,1.1,44,0.00,,,0.00,WUHU216HW,2013-01-09 06:13:00,
2013-01-08 23:18:00,38.2,18.0,30.00,WSW,248,1.8,1.8,44,0.00,,,0.00,WUHU216HW,2013-01-09 06:18:00,
2013-01-08 23:23:00,38.2,18.0,30.00,WSW,248,0.7,2.5,44,0.00,,,0.00,WUHU216HW,2013-01-09 06:23:00,
2013-01-08 23:28:00,38.0,17.9,30.01,SE,135,1.1,2.5,44,0.00,,,0.00,WUHU216HW,2013-01-09 06:28:00,
2013-01-08 23:33:00,37.8,17.7,30.02,South,180,1.1,1.8,44,0.00,,,0.00,WUHU216HW,2013-01-09 06:33:00,
2013-01-08 23:38:00,37.6,17.6,30.01,WSW,248,0.9,1.8,44,0.00,,,0.00,WUHU216HW,2013-01-09 06:38:00,
2013-01-08 23:43:00,37.4,17.4,30.01,WSW,248,1.1,2.2,44,0.00,,,0.00,WUHU216HW,2013-01-09 06:43:00,
2013-01-08 23:48:00,37.4,17.4,30.01,SW,225,1.8,2.5,44,0.00,,,0.00,WUHU216HW,2013-01-09 06:48:00,
2013-01-08 23:53:00,37.4,17.4,30.02,WSW,248,1.8,2.5,44,0.00,,,0.00,WUHU216HW,2013-01-09 06:53:00,
2013-01-08 23:58:00,37.4,17.4,30.03,SSE,158,0.4,2.0,44,0.00,,,0.00,WUHU216HW,2013-01-09 06:58:00,